DT_LEITURA;HR_LEITURA;MED-PressaoAtm[hPa];VAL-TempExt[oC];VAL-UmidExt[%UR];VAL-TempInt[oC];VAL-UmidInt[%UR];Dir-Vento[grau];Vel-Vento[m/s];Precipitação[mm/h]
24/08/2026;00:04:00;1024,8;;;12,5;74;208;1,3;0,0
24/08/2026;00:09:00;1024,8;;;12,5;74;237;1,5;0,0
24/08/2026;00:14:00;1024,8;;;12,5;74;253;1,7;0,0
24/08/2026;00:19:00;1024,7;;;12,5;74;220;1,7;0,0
24/08/2026;00:24:00;1024,7;;;12,6;74;210;1,4;0,0
24/08/2026;00:29:00;1024,7;;;12,6;73;207;1,3;0,0
24/08/2026;00:34:00;1024,6;;;12,6;73;231;1,4;0,0
24/08/2026;00:39:00;1024,6;;;12,6;73;234;1,5;0,0
24/08/2026;00:44:00;1024,5;;;12,7;73;237;1,4;0,0
24/08/2026;00:49:00;1024,5;;;12,7;73;227;1,5;0,0
24/08/2026;00:54:00;1024,4;;;12,7;73;221;1,1;0,0
24/08/2026;00:59:00;1024,3;;;12,7;73;209;1,1;0,0
24/08/2026;01:04:00;1024,3;;;12,6;73;192;1,2;0,0
24/08/2026;01:09:00;1024,3;;;12,5;73;192;1,2;0,0
24/08/2026;01:14:00;1024,2;;;12,5;73;197;1,4;0,0
24/08/2026;01:19:00;1024,2;;;12,4;73;189;1,2;0,0
24/08/2026;01:24:00;1024,2;;;12,3;73;189;1,2;0,0
24/08/2026;01:29:00;1024,1;;;12,2;73;183;1,1;0,0
24/08/2026;01:34:00;1024,0;;;12,1;73;179;1,0;0,0
24/08/2026;01:39:00;1024,1;;;12,0;73;186;1,1;0,0
24/08/2026;01:44:00;1024,1;;;12,0;73;185;1,2;0,0
24/08/2026;01:49:00;1024,1;;;11,9;73;190;1,2;0,0
24/08/2026;01:54:00;1024,1;;;11,9;74;194;1,1;0,0
24/08/2026;01:59:00;1024,2;;;11,9;74;211;1,2;0,0
24/08/2026;02:04:00;1024,2;;;12,0;74;205;1,4;0,0
24/08/2026;02:09:00;1024,2;;;12,0;74;213;1,3;0,0
24/08/2026;02:14:00;1024,1;;;12,0;74;213;1,5;0,0
24/08/2026;02:19:00;1024,1;;;12,0;74;214;1,5;0,0
24/08/2026;02:24:00;1024,1;;;12,1;73;219;1,3;0,0
24/08/2026;02:29:00;1024,1;;;12,1;73;200;1,3;0,0
24/08/2026;02:34:00;1024,0;;;12,0;73;194;1,3;0,0
24/08/2026;02:39:00;1024,0;;;12,0;73;198;1,3;0,0
24/08/2026;02:44:00;1024,0;;;12,0;73;202;1,3;0,0
24/08/2026;02:49:00;1024,1;;;12,0;73;214;1,4;0,0
24/08/2026;02:54:00;1024,1;;;12,0;73;210;1,2;0,0
24/08/2026;02:59:00;1024,0;;;11,9;73;202;1,2;0,0
24/08/2026;03:04:00;1024,0;;;11,9;73;209;1,4;0,0
24/08/2026;03:09:00;1024,0;;;11,8;73;204;1,2;0,0
24/08/2026;03:14:00;1024,0;;;11,8;73;205;1,4;0,0
24/08/2026;03:19:00;1024,0;;;11,7;73;188;1,4;0,0
24/08/2026;03:24:00;1024,0;;;11,7;73;196;1,4;0,0
24/08/2026;03:29:00;1024,0;;;11,6;73;207;1,3;0,0
24/08/2026;03:34:00;1024,0;;;11,6;73;180;1,2;0,0
24/08/2026;03:39:00;1024,0;;;11,5;73;185;1,3;0,0
24/08/2026;03:44:00;1023,9;;;11,4;73;184;1,1;0,0
24/08/2026;03:49:00;1023,9;;;11,4;73;195;0,9;0,0
24/08/2026;03:54:00;1023,9;;;11,4;73;179;1,1;0,0
24/08/2026;03:59:00;1023,7;;;11,4;73;183;1,3;0,0
24/08/2026;04:04:00;1023,7;;;11,4;73;192;1,2;0,0
24/08/2026;04:09:00;1023,7;;;11,3;73;186;1,3;0,0
24/08/2026;04:14:00;1023,8;;;11,3;74;190;1,2;0,0
24/08/2026;04:19:00;1023,7;;;11,3;74;190;1,4;0,0
24/08/2026;04:24:00;1023,6;;;11,3;74;186;1,3;0,0
24/08/2026;04:29:00;1023,6;;;11,2;74;188;1,1;0,0
24/08/2026;04:34:00;1023,5;;;11,2;73;178;1,2;0,0
24/08/2026;04:39:00;1023,6;;;11,2;73;183;1,1;0,0
24/08/2026;04:44:00;1023,6;;;11,2;73;184;1,2;0,0
24/08/2026;04:49:00;1023,6;;;11,2;73;190;1,2;0,0
24/08/2026;04:54:00;1023,6;;;11,2;74;191;1,2;0,0
24/08/2026;04:59:00;1023,6;;;11,2;73;193;1,2;0,0
24/08/2026;05:04:00;1023,7;;;11,2;74;200;1,3;0,0
24/08/2026;05:09:00;1023,7;;;11,2;74;194;1,2;0,0
24/08/2026;05:14:00;1023,7;;;11,2;74;194;1,0;0,0
24/08/2026;05:19:00;1023,8;;;11,2;73;197;1,1;0,0
24/08/2026;05:24:00;1023,8;;;11,2;73;205;1,2;0,0
24/08/2026;05:29:00;1023,8;;;11,2;73;204;1,1;0,0
24/08/2026;05:34:00;1023,9;;;11,2;73;217;1,0;0,0
24/08/2026;05:39:00;1023,9;;;11,2;73;226;1,5;0,0
24/08/2026;05:44:00;1024,0;;;11,2;73;211;1,5;0,0
24/08/2026;05:49:00;1024,0;;;11,2;73;204;1,1;0,0
24/08/2026;05:54:00;1024,0;;;11,2;73;199;1,0;0,0
24/08/2026;05:59:00;1024,0;;;11,1;73;205;1,0;0,0
24/08/2026;06:04:00;1024,1;;;11,1;73;195;1,2;0,0
24/08/2026;06:09:00;1024,1;;;11,1;73;204;0,9;0,0
24/08/2026;06:14:00;1024,2;;;11,0;73;204;1,0;0,0
24/08/2026;06:19:00;1024,3;;;11,0;73;186;1,0;0,0
24/08/2026;06:24:00;1024,4;;;11,0;73;187;1,1;0,0
24/08/2026;06:29:00;1024,4;;;10,9;73;202;1,1;0,0
24/08/2026;06:34:00;1024,4;;;10,9;73;197;1,0;0,0
24/08/2026;06:39:00;1024,5;;;10,9;73;215;1,0;0,0
24/08/2026;06:44:00;1024,6;;;10,9;73;205;1,0;0,0
24/08/2026;06:49:00;1024,8;;;10,9;73;206;1,1;0,0
24/08/2026;06:54:00;1024,9;;;10,9;73;211;1,2;0,0
24/08/2026;06:59:00;1024,9;;;10,9;74;215;1,3;0,0
24/08/2026;07:04:00;1025,0;;;10,9;74;208;1,4;0,0
24/08/2026;07:09:00;1025,1;;;10,9;74;214;1,8;0,0
24/08/2026;07:14:00;1025,0;;;10,9;74;209;1,6;0,0
24/08/2026;07:19:00;1025,0;;;10,9;74;207;1,4;0,0
24/08/2026;07:24:00;1025,1;;;11,0;74;208;1,4;0,0
24/08/2026;07:29:00;1025,1;;;11,0;74;206;1,1;0,0
24/08/2026;07:34:00;1025,2;;;11,1;74;214;1,5;0,0
24/08/2026;07:39:00;1025,2;;;11,2;74;218;1,9;0,0
24/08/2026;07:44:00;1025,3;;;11,2;74;220;1,9;0,0
24/08/2026;07:49:00;1025,4;;;11,3;74;225;2,0;0,0
24/08/2026;07:54:00;1025,4;;;11,4;74;232;2,1;0,0
24/08/2026;07:59:00;1025,5;;;11,5;75;231;1,6;0,0
24/08/2026;08:04:00;1025,5;;;11,6;75;251;2,3;0,0
24/08/2026;08:09:00;1025,6;;;11,8;76;261;2,4;0,0
24/08/2026;08:14:00;1025,7;;;12,1;77;259;2,6;0,0
24/08/2026;08:19:00;1025,7;;;12,3;77;266;3,2;0,0
24/08/2026;08:24:00;1025,7;;;12,6;77;258;2,4;0,0
24/08/2026;08:29:00;1025,7;;;12,8;77;246;2,4;0,0
24/08/2026;08:34:00;1025,8;;;13,1;76;230;2,4;0,0
24/08/2026;08:39:00;1025,8;;;13,3;76;234;2,8;0,0
24/08/2026;08:44:00;1025,9;;;13,6;75;235;2,8;0,0
24/08/2026;08:49:00;1025,9;;;13,7;74;229;2,8;0,0
24/08/2026;08:54:00;1025,9;;;13,9;75;239;3,8;0,0
24/08/2026;08:59:00;1025,9;;;14,0;74;234;3,0;0,0
24/08/2026;09:04:00;1025,8;;;14,1;74;222;2,6;0,0
24/08/2026;09:09:00;1025,9;;;14,3;74;235;4,1;0,0
24/08/2026;09:14:00;1025,9;;;14,5;74;238;3,5;0,0
24/08/2026;09:19:00;1026,0;;;14,6;74;236;3,4;0,0
24/08/2026;09:24:00;1025,9;;;14,8;74;259;3,6;0,0
24/08/2026;09:29:00;1025,9;;;15,0;74;250;4,2;0,0
24/08/2026;09:34:00;1026,0;;;15,1;74;242;3,7;0,0
24/08/2026;09:39:00;1026,0;;;15,3;74;232;3,3;0,0
24/08/2026;09:44:00;1026,0;;;15,4;74;240;3,6;0,0
24/08/2026;09:49:00;1026,1;;;15,6;73;238;3,8;0,0
24/08/2026;09:54:00;1026,1;;;15,8;73;238;3,0;0,0
24/08/2026;09:59:00;1026,0;;;15,9;73;237;3,4;0,0
24/08/2026;10:04:00;1026,1;;;16,0;73;234;3,7;0,0
24/08/2026;10:09:00;1026,1;;;16,1;73;233;3,8;0,0
24/08/2026;10:14:00;1026,1;;;16,2;73;231;3,8;0,0
24/08/2026;10:19:00;1026,0;;;16,3;73;237;3,0;0,0
24/08/2026;10:24:00;1026,0;;;16,3;73;242;3,3;0,0
24/08/2026;10:29:00;1025,8;;;16,4;73;246;3,1;0,0
24/08/2026;10:34:00;1025,7;;;16,5;73;239;4,0;0,0
24/08/2026;10:39:00;1025,7;;;16,6;73;242;4,1;0,0
24/08/2026;10:44:00;1025,8;;;16,6;73;245;3,7;0,0
24/08/2026;10:49:00;1025,7;;;16,6;73;243;4,1;0,0
24/08/2026;10:54:00;1025,7;;;16,7;73;244;4,2;0,0
24/08/2026;10:59:00;1025,7;;;16,7;73;244;4,7;0,0
24/08/2026;11:04:00;1025,6;;;16,8;73;247;3,8;0,0
24/08/2026;11:09:00;1025,4;;;16,8;73;252;4,1;0,0
24/08/2026;11:14:00;1025,4;;;16,9;73;253;3,6;0,0
24/08/2026;11:19:00;1025,4;;;16,9;73;255;3,2;0,0
24/08/2026;11:24:00;1025,3;;;17,0;73;247;4,1;0,0
24/08/2026;11:29:00;1025,2;;;17,1;73;248;4,4;0,0
24/08/2026;11:34:00;1025,1;;;17,2;73;253;3,9;0,0
24/08/2026;11:39:00;1025,0;;;17,2;73;255;3,4;0,0
24/08/2026;11:44:00;1024,9;;;17,3;73;254;3,4;0,0
24/08/2026;11:49:00;1024,9;;;17,4;73;258;3,9;0,0
24/08/2026;11:54:00;1024,9;;;17,5;73;256;3,2;0,0
24/08/2026;11:59:00;1024,8;;;17,6;73;252;4,2;0,0
24/08/2026;12:04:00;1024,7;;;17,7;73;257;3,8;0,0
24/08/2026;12:09:00;1024,7;;;17,7;72;253;3,6;0,0
24/08/2026;12:14:00;1024,7;;;17,8;73;266;3,0;0,0
24/08/2026;12:19:00;1024,7;;;17,9;73;257;3,7;0,0
24/08/2026;12:24:00;1024,7;;;18,0;72;252;3,1;0,0
24/08/2026;12:29:00;1024,7;;;18,1;72;247;3,6;0,0
24/08/2026;12:34:00;1024,6;;;18,1;72;253;2,8;0,0
24/08/2026;12:39:00;1024,6;;;18,2;72;261;3,3;0,0
24/08/2026;12:44:00;1024,7;;;18,2;72;252;3,5;0,0
24/08/2026;12:49:00;1024,6;;;18,3;72;254;3,8;0,0
24/08/2026;12:54:00;1024,5;;;18,4;72;253;4,3;0,0
24/08/2026;12:59:00;1024,5;;;18,4;72;260;3,6;0,0
24/08/2026;13:04:00;1024,5;;;18,4;72;269;2,3;0,0
24/08/2026;13:09:00;1024,4;;;18,5;72;250;3,5;0,0
24/08/2026;13:14:00;1024,3;;;18,5;72;258;3,8;0,0
24/08/2026;13:19:00;1024,3;;;18,5;72;251;3,0;0,0
24/08/2026;13:24:00;1024,2;;;18,5;72;252;3,7;0,0
24/08/2026;13:29:00;1024,1;;;18,5;72;272;2,1;0,0
24/08/2026;13:34:00;1024,0;;;18,4;72;249;3,5;0,0
24/08/2026;13:39:00;1023,9;;;18,4;72;258;3,8;0,0
24/08/2026;13:44:00;1023,8;;;18,4;72;247;4,1;0,0
24/08/2026;13:49:00;1023,8;;;18,4;72;254;3,8;0,0
24/08/2026;13:54:00;1023,7;;;18,4;72;248;3,8;0,0
24/08/2026;13:59:00;1023,7;;;18,4;72;253;3,0;0,0
24/08/2026;14:04:00;1023,5;;;18,5;72;260;2,7;0,0
24/08/2026;14:09:00;1023,5;;;18,5;72;262;2,5;0,0
24/08/2026;14:14:00;1023,4;;;18,5;72;273;2,9;0,0
24/08/2026;14:19:00;1023,3;;;18,5;72;259;3,7;0,0
24/08/2026;14:24:00;1023,3;;;18,5;72;265;2,7;0,0
24/08/2026;14:29:00;1023,3;;;18,5;72;269;2,5;0,0
24/08/2026;14:34:00;1023,3;;;18,5;72;265;3,1;0,0
24/08/2026;14:39:00;1023,2;;;18,4;72;261;3,5;0,0
24/08/2026;14:44:00;1023,1;;;18,4;71;283;2,7;0,0
24/08/2026;14:49:00;1023,1;;;18,3;71;270;2,4;0,0
24/08/2026;14:54:00;1023,2;;;18,2;71;260;2,2;0,0
24/08/2026;14:59:00;1023,1;;;18,2;72;273;2,9;0,0
24/08/2026;15:04:00;1023,1;;;18,2;72;260;2,7;0,0
24/08/2026;15:09:00;1023,2;;;18,1;72;256;3,8;0,0
24/08/2026;15:14:00;1023,2;;;18,1;72;262;3,2;0,0
24/08/2026;15:19:00;1023,2;;;18,0;72;263;2,9;0,0
24/08/2026;15:24:00;1023,2;;;17,9;72;254;3,5;0,0
24/08/2026;15:29:00;1023,2;;;17,8;72;260;2,9;0,0
24/08/2026;15:34:00;1023,2;;;17,7;72;250;3,7;0,0
24/08/2026;15:39:00;1023,2;;;17,6;71;252;2,6;0,0
24/08/2026;15:44:00;1023,2;;;17,5;72;266;2,8;0,0
24/08/2026;15:49:00;1023,1;;;17,5;72;257;3,0;0,0
24/08/2026;15:54:00;1023,1;;;17,5;72;251;2,7;0,0
24/08/2026;15:59:00;1023,2;;;17,4;72;256;2,3;0,0
24/08/2026;16:04:00;1023,2;;;17,4;71;249;3,3;0,0
24/08/2026;16:09:00;1023,2;;;17,3;72;256;2,9;0,0
24/08/2026;16:14:00;1023,2;;;17,3;72;251;3,4;0,0
24/08/2026;16:19:00;1023,3;;;17,3;72;259;2,5;0,0
24/08/2026;16:24:00;1023,3;;;17,4;72;257;2,4;0,0
24/08/2026;16:29:00;1023,2;;;17,4;71;274;2,0;0,0
24/08/2026;16:34:00;1023,2;;;17,4;71;254;1,9;0,0
24/08/2026;16:39:00;1023,1;;;17,4;71;247;2,7;0,0
24/08/2026;16:44:00;1023,1;;;17,3;71;253;2,0;0,0
24/08/2026;16:49:00;1023,2;;;17,2;71;251;2,2;0,0
24/08/2026;16:54:00;1023,3;;;17,1;71;251;2,4;0,0
24/08/2026;16:59:00;1023,4;;;16,9;71;245;2,6;0,0
24/08/2026;17:04:00;1023,5;;;16,7;72;245;2,6;0,0
24/08/2026;17:09:00;1023,4;;;16,5;72;255;2,4;0,0
24/08/2026;17:14:00;1023,5;;;16,4;72;266;1,4;0,0
24/08/2026;17:19:00;1023,5;;;16,3;72;264;2,0;0,0
24/08/2026;17:24:00;1023,5;;;16,2;73;269;1,4;0,0
24/08/2026;17:29:00;1023,4;;;16,1;73;271;1,2;0,0
24/08/2026;17:34:00;1023,4;;;16,0;73;253;1,5;0,0
24/08/2026;17:39:00;1023,4;;;16,0;73;254;1,4;0,0
24/08/2026;17:44:00;1023,4;;;15,8;73;254;1,3;0,0
24/08/2026;17:49:00;1023,4;;;15,7;73;266;1,0;0,0
24/08/2026;17:54:00;1023,4;;;15,5;73;233;1,2;0,0
24/08/2026;17:59:00;1023,5;;;15,4;73;250;2,5;0,0
24/08/2026;18:04:00;1023,5;;;15,2;73;267;1,4;0,0
24/08/2026;18:09:00;1023,6;;;15,1;73;205;1,5;0,0
24/08/2026;18:14:00;1023,5;;;15,0;73;179;1,6;0,0
24/08/2026;18:19:00;1023,3;;;14,9;73;221;1,1;0,0
24/08/2026;18:24:00;1023,2;;;14,9;73;207;1,2;0,0
24/08/2026;18:29:00;1023,2;;;14,8;73;258;1,1;0,0
24/08/2026;18:34:00;1023,2;;;14,7;73;244;1,5;0,0
24/08/2026;18:39:00;1023,3;;;14,7;73;160;0,8;0,0
24/08/2026;18:44:00;1023,3;;;14,7;73;252;1,8;0,0
24/08/2026;18:49:00;1023,3;;;14,6;73;225;1,3;0,0
24/08/2026;18:54:00;1023,3;;;14,6;73;239;1,5;0,0
24/08/2026;18:59:00;1023,3;;;14,6;73;220;1,3;0,0
24/08/2026;19:04:00;1023,3;;;14,6;73;246;1,6;0,0
24/08/2026;19:09:00;1023,3;;;14,6;73;252;1,5;0,0
24/08/2026;19:14:00;1023,3;;;14,6;73;196;0,7;0,0
24/08/2026;19:19:00;1023,4;;;14,6;73;180;1,3;0,0
24/08/2026;19:24:00;1023,5;;;14,5;73;260;0,9;0,0
24/08/2026;19:29:00;1023,5;;;14,5;73;133;0,6;0,0
24/08/2026;19:34:00;1023,5;;;14,5;73;242;0,7;0,0
24/08/2026;19:39:00;1023,6;;;14,5;73;200;0,8;0,0
24/08/2026;19:44:00;1023,7;;;14,6;73;207;0,7;0,0
24/08/2026;19:49:00;1023,8;;;14,6;73;171;1,0;0,0
24/08/2026;19:54:00;1023,9;;;14,6;73;175;0,7;0,0
24/08/2026;19:59:00;1024,0;;;14,6;73;168;0,8;0,0
24/08/2026;20:04:00;1024,0;;;14,6;73;199;1,1;0,0
24/08/2026;20:09:00;1024,0;;;14,6;73;200;1,0;0,0
24/08/2026;20:14:00;1024,0;;;14,6;73;301;0,6;0,0
24/08/2026;20:19:00;1024,2;;;14,6;73;188;0,6;0,0
24/08/2026;20:24:00;1024,3;;;14,6;73;178;1,0;0,0
24/08/2026;20:29:00;1024,4;;;14,6;72;159;0,8;0,0
24/08/2026;20:34:00;1024,3;;;14,6;72;180;0,7;0,0
24/08/2026;20:39:00;1024,2;;;14,6;72;216;0,6;0,0
24/08/2026;20:44:00;1024,3;;;14,6;72;158;0,7;0,0
24/08/2026;20:49:00;1024,2;;;14,5;72;142;0,4;0,0
24/08/2026;20:54:00;1024,3;;;14,5;72;183;1,1;0,0
24/08/2026;20:59:00;1024,4;;;14,5;72;171;0,9;0,0
24/08/2026;21:04:00;1024,4;;;14,5;72;155;0,6;0,0
24/08/2026;21:09:00;1024,4;;;14,5;72;214;0,6;0,0
24/08/2026;21:14:00;1024,3;;;14,5;72;199;0,8;0,0
24/08/2026;21:19:00;1024,2;;;14,4;72;215;0,4;0,0
24/08/2026;21:24:00;1024,2;;;14,4;72;158;0,6;0,0
24/08/2026;21:29:00;1024,2;;;14,4;72;199;1,0;0,0
24/08/2026;21:34:00;1024,2;;;14,4;72;223;1,2;0,0
24/08/2026;21:39:00;1024,1;;;14,4;72;197;0,6;0,0
24/08/2026;21:44:00;1024,1;;;14,4;72;183;0,6;0,0
24/08/2026;21:49:00;1024,1;;;14,3;72;170;0,8;0,0
24/08/2026;21:54:00;1024,1;;;14,3;72;186;0,6;0,0
24/08/2026;21:59:00;1024,0;;;14,3;72;247;1,5;0,0
24/08/2026;22:04:00;1024,0;;;14,2;72;270;1,5;0,0
24/08/2026;22:09:00;1024,0;;;14,2;72;266;1,4;0,0
24/08/2026;22:14:00;1023,9;;;14,2;72;248;1,2;0,0
24/08/2026;22:19:00;1023,9;;;14,3;72;217;1,0;0,0
24/08/2026;22:24:00;1023,9;;;14,2;72;249;1,3;0,0
24/08/2026;22:29:00;1023,8;;;14,2;72;233;0,9;0,0
24/08/2026;22:34:00;1023,7;;;14,2;72;232;0,9;0,0
24/08/2026;22:39:00;1023,7;;;14,2;72;249;1,0;0,0
24/08/2026;22:44:00;1023,7;;;14,2;72;277;1,5;0,0
24/08/2026;22:49:00;1023,7;;;14,1;72;267;1,4;0,0
24/08/2026;22:54:00;1023,7;;;14,1;72;262;1,7;0,0
24/08/2026;22:59:00;1023,5;;;14,1;72;261;1,4;0,0
24/08/2026;23:04:00;1023,4;;;14,1;72;245;0,9;0,0
24/08/2026;23:09:00;1023,4;;;14,0;72;226;1,1;0,0
24/08/2026;23:14:00;1023,5;;;13,9;72;250;1,6;0,0
24/08/2026;23:19:00;1023,4;;;13,9;72;260;1,0;0,0
24/08/2026;23:24:00;1023,4;;;13,8;72;246;1,0;0,0
24/08/2026;23:29:00;1023,3;;;13,8;72;270;1,1;0,0
24/08/2026;23:34:00;1023,3;;;13,7;72;252;1,4;0,0
24/08/2026;23:39:00;1023,1;;;13,7;72;249;1,3;0,0
24/08/2026;23:44:00;1023,0;;;13,6;72;162;0,7;0,0
24/08/2026;23:49:00;1023,0;;;13,6;72;258;1,3;0,0
24/08/2026;23:54:00;1022,9;;;13,5;72;244;0,8;0,0
24/08/2026;23:59:00;1022,9;;;13,5;73;307;0,7;0,0
